Regional Weather Roundup
Issued by NWS

Home | Current Version | Previous Version | Graphics & Text | Print | Product List | Glossary On
Versions: 1 2 3 4 5 6 7 8 9 10 11 12 13 14 15 16 17 18 19 20 21 22 23 24 25 26 27 28 29 30 31 32 33 34 35 36 37 38 39 40 41 42 43 44 45 46 47 48 49 50
000
ASUS43 KOAX 210702
RWRNE

WEATHER ROUNDUP FOR NEBRASKA
NATIONAL WEATHER SERVICE OMAHA NE
200 AM CDT SUN SEP 21 2014

NOTES: SATELLITE DATA IS BEING USED TO AUGMENT CLOUD COVER ABOVE
       12000 FEET.
       "FAIR" INDICATES FEW OR NO CLOUDS BELOW 12,000 FEET WITH NO
       SIGNIFICANT WEATHER AND/OR OBSTRUCTIONS TO VISIBILITY.

  * THESE STATIONS DO NOT REPORT WEATHER SUCH AS RAIN...SNOW OR FOG.

NEZ001>004-019>022-054>056-210800-
NEBRASKA PANHANDLE

CITY           SKY/WX    TMP DP  RH WIND       PRES   REMARKS
SCOTTSBLUFF    PTCLDY    53  43  68 CALM      30.33R
ALLIANCE       CLEAR     41  38  89 W6        30.32R
CHADRON        CLEAR     46  41  82 CALM      30.31R
KIMBALL        CLOUDY    56  41  56 E3        30.34R
SIDNEY         CLOUDY    59  43  55 NE6       30.34R
$$

NEZ057>060-069>072-079>082-210800-
SOUTHWEST NEBRASKA

CITY           SKY/WX    TMP DP  RH WIND       PRES   REMARKS
NORTH PLATTE   CLEAR     49  44  83 NW3       30.25R
IMPERIAL       CLEAR     54  45  71 CALM      30.28R
LEXINGTON      CLEAR     51  48  87 W7        30.22R
MCCOOK         CLEAR     58  47  66 NW3       30.24R
OGALLALA       CLEAR     53  46  75 CALM      30.28S
$$

NEZ005>010-023>029-035>040-094-210800-
NORTH CENTRAL NEBRASKA

CITY           SKY/WX    TMP DP  RH WIND       PRES   REMARKS
VALENTINE      CLEAR     49  39  68 W7        30.23R
AINSWORTH      CLEAR     49  40  72 W8        30.22R
BROKEN BOW     CLEAR     55  43  63 CALM      30.21R
O`NEILL        CLEAR     51  45  78 W7        30.17S
ORD            CLEAR     51  43  74 NW3       30.17R
$$

NEZ041-046>049-061>064-073>077-083>087-210800-
SOUTH CENTRAL NEBRASKA

CITY           SKY/WX    TMP DP  RH WIND       PRES   REMARKS
GRAND ISLAND   CLEAR     56  48  74 W5        30.17R
AURORA         CLEAR     53  49  87 W5        30.16R
HASTINGS       CLEAR     57  48  72 NW3       30.17R
HEBRON         CLEAR     58  51  77 CALM      30.14R
HOLDREGE       CLEAR     56  47  72 CALM      30.20S
KEARNEY *      CLEAR     55  46  71 W6        30.19S
YORK           CLEAR     54  50  87 NW8       30.14S
$$

NEZ011>018-030>034-042>045-210800-
NORTHEAST NEBRASKA

CITY           SKY/WX    TMP DP  RH WIND       PRES   REMARKS
NORFOLK        CLEAR     55  47  74 W9        30.13R
ALBION         CLEAR     48  44  86 CALM      30.15S
BLAIR          CLEAR     60  51  71 W3        30.08S
COLUMBUS *     CLEAR     52  46  82 W5        30.13S
FREMONT        CLEAR     56  51  84 W5        30.10S
TEKAMAH        CLEAR     55  51  86 W7        30.07S
WAYNE          CLEAR     48  46  93 CALM      30.11R
$$

NEZ050>053-065>068-078-088>093-210800-
SOUTHEAST NEBRASKA

CITY           SKY/WX    TMP DP  RH WIND       PRES   REMARKS
LINCOLN        CLEAR     57  51  80 N5        30.11R
OMAHA EPPLEY   CLEAR     61  54  77 CALM      30.08R
BEATRICE       CLEAR     56  51  83 NW5       30.11R
FALLS CITY     CLEAR     64  56  75 N5        30.07R
NEBRASKA CITY    N/A     63  49  60 CALM      30.09R
PLATTSMOUTH    CLEAR     60  53  77 CALM      30.08R
$$

NEZ044-045-051>053-067-210800-
OMAHA AREA

CITY           SKY/WX    TMP DP  RH WIND       PRES   REMARKS
OMAHA EPPLEY   CLEAR     61  54  77 CALM      30.08R
BLAIR          CLEAR     60  51  71 W3        30.08S
FREMONT        CLEAR     56  51  84 W5        30.10S
MILLARD        CLEAR     62  52  70 CALM      30.08R
OFFUTT AFB     CLEAR     59  56  90 NW5       30.07R
PLATTSMOUTH    CLEAR     60  53  77 CALM      30.08R
WAHOO          FAIR      57  51  79 NW6       30.10R
$$


USA.gov is the U.S. government's official web portal to all federal, state and local government web resources and services.